Regional Weather Roundup
Issued by NWS

Home | Current Version | Previous Version | Graphics & Text | Print | Product List | Glossary On
Versions: 1 2 3 4 5 6 7 8 9 10 11 12 13 14 15 16 17 18 19 20 21 22 23 24 25 26 27 28 29 30 31 32 33 34 35 36 37 38 39 40 41 42 43 44 45 46 47 48 49 50
000
ASUS43 KFSD 291402
RWRSD

WEATHER ROUNDUP FOR SOUTH DAKOTA
NATIONAL WEATHER SERVICE SIOUX FALLS SD
900 AM CDT MON AUG 29 2016

NOTE: "FAIR" INDICATES FEW OR NO CLOUDS BELOW 12,000 FEET WITH NO
SIGNIFICANT WEATHER AND/OR OBSTRUCTIONS TO VISIBILITY.


SDZ001>005-009-010-012>017-291500-
NORTHWEST AND NORTH CENTRAL SOUTH DAKOTA

CITY           SKY/WX    TMP DP  RH WIND       PRES   REMARKS
FAITH            N/A     65  53  65 NE22      30.18S
MOBRIDGE       SUNNY     70  60  70 N15       30.13R
$$

SDZ012>016-024>037-041>051-057-063-072>074-291500-
SOUTHWEST AND SOUTH CENTRAL SOUTH DAKOTA

CITY           SKY/WX    TMP DP  RH WIND       PRES   REMARKS
RAPID CTY ARPT SUNNY     64  52  64 NW16      30.24R
PIERRE         SUNNY     71  61  70 NW8       30.10R
CUSTER         CLOUDY    62  41  46 N5        30.33R
ELLSWORTH AFB  SUNNY     64  52  63 N16       30.24R
PHILIP         SUNNY     65  58  78 N8        30.15R
PINE RIDGE     SUNNY     65  58  78 CALM      30.21R
WINNER         FAIR      74  63  68 SW16G24   30.12R
$$

SDZ004>011-016>023-039-040-291500-
NORTHEAST SOUTH DAKOTA

CITY           SKY/WX    TMP DP  RH WIND       PRES   REMARKS
ABERDEEN       CLOUDY    68  67  96 N8        30.11R FOG
WATERTOWN      SUNNY     73  68  84 S8        30.12R
BROOKINGS        N/A    N/A N/A N/A MISG        N/A
$$

SDZ017-020-022-023-036>040-048>070-291500-
SOUTHEAST SOUTH DAKOTA

CITY           SKY/WX    TMP DP  RH WIND       PRES   REMARKS
SIOUX FALLS    MOSUNNY   72  68  87 S8        30.16R
HURON          SUNNY     73  68  84 S8        30.10R
CHAMBERLAIN    SUNNY     75  65  70 SW9       30.12R
MITCHELL       SUNNY     75  68  78 S9        30.12R
YANKTON        MOSUNNY   70  64  83 SE5       30.13S
$$

ABBREVIATIONS USED IN REMARKS
   TC - TEMPERATURE IN CELSIUS
  WCI - WIND CHILL INDEX
   HX - HEAT INDEX
  VSB - VISIBILITY





USA.gov is the U.S. government's official web portal to all federal, state and local government web resources and services.